Pau, France

6:35 PM CET on November 23, 2017 (GMT +0100)
Pau / Pyrenees

Weather History for LFBP - February, 2014

Change the Weather History Date:

Friday, February 21, 2014

  Actual Average Record
Temperature  
Mean Temperature 42 °F -  
Max Temperature 48 °F 56 °F 65 °F (2016)
Min Temperature 37 °F 38 °F 23 °F (2012)
Degree Days  
Heating Degree Days 22    
Moisture  
Dew Point 40 °F    
Average Humidity 85    
Maximum Humidity 93    
Minimum Humidity 65    
Precipitation  
Precipitation 0.24 in - - ()
Sea Level Pressure  
Sea Level Pressure 30.11 in    
Wind  
Wind Speed 8 mph ()    
Max Wind Speed 21 mph    
Max Gust Speed 30 mph    
Visibility 6.4 miles    
Events Rain    
Averages and records for this station are not official NWS values.
T = Trace of Precipitation, MM = Missing Value Source: Averaged Metar Reports

Daily Weather History Graph

Daily Weather History Graph

Search for Another Location

Airport or City:

Trip Planner

Search our weather history database for the weather conditions in past years. The results will help you decide how hot, cold, wet, or windy it might be!

Date:

Astronomy

Feb. 21, 2014 Rise Set
Actual Time 7:51 AM CET 6:40 PM CET
Civil Twilight 7:22 AM CET 7:09 PM CET
Nautical Twilight 6:49 AM CET 7:42 PM CET
Astronomical Twilight 6:16 AM CET 8:15 PM CET
Moon 12:28 AM CET (2/21) 10:53 AM CET (2/21)
Length of Visible Light 11h 46m
Length of Day
10h 48m
Waning Gibbous, 63% of the Moon is Illuminated
Feb 21
Waning Gibbous
Feb 22
Last Quarter
Mar 1
New
Mar 8
First Quarter
Mar 16
Full

Hourly Weather History & Observations

Time (CET) Temp. Windchill Dew Point Humidity Pressure Visibility Wind Dir Wind Speed Gust Speed Precip Events Conditions
12:00 AM 48 °F - 46 °F 90% 30.05 in 10 mi WSW 5.8 mph - -   Clear
12:00 AM 48.2 °F - 46.4 °F 93% 30.04 in 6.2 mi WSW 5.8 mph - N/A   Overcast
12:30 AM 48.2 °F - 46.4 °F 93% 30.04 in 6.2 mi West 8.1 mph - N/A Rain Light Rain
1:00 AM 47 °F - 45 °F 90% 30.06 in 4 mi WNW 8.1 mph - - Rain Rain
1:00 AM 46.4 °F 42.4 °F 44.6 °F 93% 30.04 in 4.3 mi WNW 8.1 mph - N/A Rain Rain
1:30 AM 46.4 °F 43.5 °F 44.6 °F 93% 30.04 in 6.2 mi West 5.8 mph - N/A   Mostly Cloudy
2:00 AM 47 °F - 45 °F 89% 30.06 in 5 mi West 10.4 mph - - Rain Light Drizzle
2:00 AM 46.4 °F 41.5 °F 44.6 °F 93% 30.04 in 6.2 mi West 10.4 mph - N/A   Light Drizzle
2:30 AM 46.4 °F 41.9 °F 44.6 °F 93% 30.04 in 6.2 mi West 9.2 mph - N/A Rain Light Rain
3:00 AM 46 °F - 44 °F 92% 30.06 in 4 mi WSW 6.9 mph - - Rain Light Rain
3:00 AM 46.4 °F 42.9 °F 44.6 °F 93% 30.04 in 6.2 mi WSW 6.9 mph - N/A Rain Light Rain
3:30 AM 46.4 °F 42.4 °F 44.6 °F 93% 30.04 in 6.2 mi WSW 8.1 mph - N/A Rain Light Rain
4:00 AM 46 °F - 44 °F 88% 30.06 in 34 mi SW 6.9 mph - -   Clear
4:00 AM 46.4 °F 42.9 °F 42.8 °F 87% 30.04 in 6.2 mi SW 6.9 mph - N/A   Overcast
4:30 AM 46.4 °F 42.9 °F 42.8 °F 87% 30.04 in 6.2 mi SSW 6.9 mph - N/A   Overcast
5:00 AM 46.4 °F 44.3 °F 42.8 °F 87% 30.04 in 6.2 mi SW 4.6 mph - N/A   Overcast
5:30 AM 46.4 °F 43.5 °F 42.8 °F 87% 30.04 in 6.2 mi WSW 5.8 mph - N/A   Overcast
6:00 AM 45 °F - 41 °F 82% 30.07 in 6 mi West 8.1 mph - - Rain Light Rain
6:00 AM 44.6 °F 39.7 °F 41.0 °F 87% 30.04 in 6.2 mi WNW 9.2 mph - N/A Rain Light Rain
6:30 AM 44.6 °F 39.7 °F 41.0 °F 87% 30.04 in 6.2 mi West 9.2 mph - N/A Rain Light Rain
7:00 AM 44 °F - 41 °F 87% 30.08 in 9 mi WSW 5.8 mph - - Rain Light Rain
7:00 AM 44.6 °F 41.4 °F 41.0 °F 87% 30.04 in 6.2 mi WSW 5.8 mph - N/A Rain Light Rain
7:30 AM 44.6 °F 40.7 °F 41.0 °F 87% 30.06 in 6.2 mi WSW 6.9 mph - N/A Rain Light Rain
8:00 AM 44 °F - 40 °F 79% 30.10 in 9 mi West 12.7 mph - - Rain Light Rain
8:00 AM 44.6 °F 38.4 °F 39.2 °F 81% 30.06 in 6.2 mi West 12.7 mph 25.3 mph N/A Rain Light Rain
8:30 AM 44.6 °F 40.2 °F 41.0 °F 87% 30.06 in 6.2 mi WSW 8.1 mph - N/A Rain Light Rain
9:00 AM 42 °F - 39 °F 84% 30.13 in 6 mi West 20.7 mph - - Rain Light Rain Showers
9:00 AM 42.8 °F 34.3 °F 39.2 °F 87% 30.09 in 5.6 mi West 19.6 mph - N/A Rain Light Rain Showers
9:30 AM 42.8 °F 37.0 °F 39.2 °F 87% 30.09 in 5.6 mi SW 10.4 mph - N/A Rain Light Rain Showers
10:00 AM 43 °F - 39 °F 81% 30.14 in 7 mi WSW 11.5 mph - - Rain Light Rain Showers
10:00 AM 42.8 °F 36.6 °F 39.2 °F 87% 30.09 in 6.2 mi WSW 11.5 mph - N/A   Mostly Cloudy
10:30 AM 44.6 °F 39.2 °F 39.2 °F 81% 30.12 in 6.2 mi SW 10.4 mph - N/A   Mostly Cloudy
11:00 AM 44 °F - 39 °F 76% 30.16 in 9 mi SW 10.4 mph - - Rain Light Rain Showers
11:00 AM 44.6 °F 39.2 °F 39.2 °F 81% 30.12 in 6.2 mi SW 10.4 mph - N/A Rain Light Rain Showers
11:30 AM 42.8 °F 36.2 °F 39.2 °F 87% 30.12 in 6.2 mi West 12.7 mph - N/A Rain Light Rain Showers
12:00 PM 43 °F - 40 °F 84% 30.18 in 5 mi West 9.2 mph - - Rain Light Rain Showers
12:00 PM 42.8 °F 37.5 °F 39.2 °F 87% 30.15 in 5.0 mi West 9.2 mph - N/A Rain Light Rain Showers
12:11 PM 42.8 °F 37.0 °F 41.0 °F 93% 30.12 in 6.2 mi WSW 10.4 mph - N/A   Mostly Cloudy
12:30 PM 46.4 °F 41.9 °F 41.0 °F 81% 30.12 in 6.2 mi SW 9.2 mph - N/A   Mostly Cloudy
1:00 PM 40 °F - 35 °F 74% 30.19 in 4 mi West 19.6 mph - - Rain Heavy Rain Showers
1:00 PM 42.8 °F 34.8 °F 39.2 °F 87% 30.15 in 3.7 mi WSW 17.3 mph 29.9 mph N/A Rain Rain Showers
1:30 PM 39.2 °F 33.6 °F 37.4 °F 93% 30.15 in 3.7 mi NW 8.1 mph - N/A Rain Rain Showers
2:00 PM 42 °F - 37 °F 78% 30.16 in 6 mi WSW 10.4 mph - - Rain Light Rain Showers
2:00 PM 41.0 °F 33.5 °F 37.4 °F 87% 30.12 in 5.6 mi West 13.8 mph - N/A Rain Light Rain Showers
2:30 PM 44.6 °F 39.2 °F 41.0 °F 87% 30.12 in 5.6 mi SW 10.4 mph - N/A   Mostly Cloudy
3:00 PM 46 °F - 41 °F 77% 30.14 in 9 mi SW 10.4 mph - - Rain Light Rain Showers
3:00 PM 46.4 °F 41.5 °F 41.0 °F 81% 30.12 in 6.2 mi SW 10.4 mph - N/A   Scattered Clouds
3:30 PM 46.4 °F 41.1 °F 41.0 °F 81% 30.12 in 6.2 mi West 11.5 mph - N/A   Scattered Clouds
4:00 PM 47 °F - 39 °F 65% 30.14 in 9 mi WSW 12.7 mph - -   Partly Cloudy
4:00 PM 46.4 °F 41.1 °F 39.2 °F 76% 30.09 in 6.2 mi SW 11.5 mph - N/A   Scattered Clouds
4:30 PM 48.2 °F - 41.0 °F 76% 30.09 in 6.2 mi West 11.5 mph - N/A   Scattered Clouds
5:00 PM 46 °F - 40 °F 72% 30.14 in 9 mi West 12.7 mph - - Rain Light Rain Showers
5:30 PM 44.6 °F 39.2 °F 39.2 °F 81% 30.12 in 6.2 mi WSW 10.4 mph - N/A   Scattered Clouds
6:00 PM 42 °F - 38 °F 83% 30.16 in 7 mi WSW 13.8 mph - - Rain Light Rain Showers
6:00 PM 42.8 °F 34.8 °F 37.4 °F 81% 30.12 in 6.2 mi West 17.3 mph - N/A Rain Light Rain Showers
6:30 PM 42.8 °F 38.0 °F 37.4 °F 81% 30.12 in 6.2 mi WSW 8.1 mph - N/A   Scattered Clouds
7:00 PM 41 °F - 37 °F 81% 30.17 in 9 mi South 5.8 mph - -   Partly Cloudy
7:00 PM 41.0 °F 37.1 °F 37.4 °F 87% 30.15 in 6.2 mi SSW 5.8 mph - N/A   Scattered Clouds
7:30 PM 41.0 °F 37.1 °F 37.4 °F 87% 30.15 in 6.2 mi South 5.8 mph - N/A   Scattered Clouds
8:00 PM 41 °F - 38 °F 84% 30.18 in 9 mi SSE 5.8 mph - -   Partly Cloudy
8:00 PM 41.0 °F 37.1 °F 37.4 °F 87% 30.15 in 6.2 mi SSE 5.8 mph - N/A   Scattered Clouds
8:30 PM 41.0 °F 38.0 °F 37.4 °F 87% 30.15 in 6.2 mi South 4.6 mph - N/A   Partly Cloudy
9:00 PM 40 °F - 37 °F 84% 30.18 in 9 mi SSE 4.6 mph - -   Scattered Clouds
9:00 PM 39.2 °F 35.9 °F 37.4 °F 93% 30.15 in 6.2 mi SSE 4.6 mph - N/A   Partly Cloudy
9:30 PM 39.2 °F 35.9 °F 35.6 °F 87% 30.15 in 6.2 mi SSE 4.6 mph - N/A   Unknown
10:00 PM 38 °F - 36 °F 88% 30.19 in 8 mi SE 4.6 mph - -   Clear
10:00 PM 37.4 °F 33.8 °F 35.6 °F 93% 30.15 in 6.2 mi SE 4.6 mph - N/A   Unknown
10:30 PM 37.4 °F 32.8 °F 35.6 °F 93% 30.15 in 6.2 mi South 5.8 mph - N/A   Partly Cloudy
11:00 PM 39 °F - 35 °F 78% 30.18 in 22 mi South 6.9 mph - -   Clear
11:00 PM 39.2 °F 34.2 °F 33.8 °F 81% 30.15 in 6.2 mi South 6.9 mph - N/A   Scattered Clouds
11:30 PM 39.2 °F 34.2 °F 33.8 °F 81% 30.15 in 6.2 mi SSE 6.9 mph - N/A   Unknown